Date String (YYYY-MM-DD hh:mm:ss) UTC,Instrument flags,Ambient pressure (hPa),Sample flow (lpm),Bypass flow (lpm),Sample temperature (°C),Ambient temperature (°C),ASC tube jacket temperature (°C),LED temperature (°C),Box temperature (°C),Sample RH (%),Span deviation,Mass concentration (μg/m³),Mass concentration (μg/m³),Mass concentration (μg/m³)
DateTimeUTC,F1_M11,P_M11,Q1_M11,Q2_M11,T1_M11,T2_M11,T3_M11,T4_M11,T5_M11,U1_M11,ZSPAN_M11,X2_M11,X0_M11,X1_M11
2022-12-03 14:00:00,,0831.8,5.00,0.00,21.3,19.6,00.0,30.3,22.9,07.8,0000.0,0002.88,0010.92,0001.80
2022-12-03 14:01:00,,0831.7,5.02,0.00,21.4,20.6,00.0,30.2,23.1,07.8,0000.0,0002.91,0011.11,0001.79
2022-12-03 14:02:00,,0831.7,5.00,0.00,21.5,21.6,00.0,30.2,23.4,07.7,0000.0,0002.95,0010.35,0001.80
2022-12-03 14:03:00,,0831.7,4.98,0.00,21.6,21.9,00.0,30.3,23.5,07.6,0000.0,0002.89,0009.74,0001.79
2022-12-03 14:04:00,,0831.7,5.00,0.00,21.6,21.1,00.0,30.3,23.3,07.6,0000.0,0002.86,0009.12,0001.79
2022-12-03 14:05:00,,0831.6,5.00,0.00,21.5,20.4,00.0,30.4,23.1,07.6,0000.0,0002.81,0008.19,0001.79
2022-12-03 14:06:00,,0831.7,5.00,0.00,21.5,20.1,00.0,30.4,23.0,07.6,0000.0,0002.75,0008.77,0001.79
2022-12-03 14:07:00,,0831.8,5.00,0.00,21.4,19.7,00.0,30.4,22.9,07.6,0000.0,0002.70,0009.35,0001.79
2022-12-03 14:08:00,,0831.6,5.00,0.00,21.3,19.3,00.0,30.4,22.8,07.7,0000.0,0002.74,0010.07,0001.80
2022-12-03 14:09:00,,0831.7,5.00,0.00,21.3,19.1,00.0,30.4,22.7,07.7,0000.0,0002.72,0010.21,0001.80
2022-12-03 14:10:00,,0831.7,5.01,0.00,21.2,19.8,00.0,30.3,22.8,07.7,0000.0,0002.74,0009.82,0001.80
2022-12-03 14:11:00,,0831.7,5.00,0.00,21.4,21.0,00.0,30.2,23.1,07.7,0000.0,0002.78,0010.36,0001.79
2022-12-03 14:12:00,,0831.8,5.00,0.00,21.5,21.9,00.0,30.2,23.4,07.6,0000.0,0002.69,0010.03,0001.76
2022-12-03 14:13:00,,0831.7,4.98,0.00,21.6,21.7,00.0,30.3,23.4,07.6,0000.0,0002.60,0009.81,0001.73
2022-12-03 14:14:00,,0831.8,5.00,0.00,21.5,20.9,00.0,30.3,23.3,07.6,0000.0,0002.60,0009.83,0001.71
2022-12-03 14:15:00,,0831.7,5.00,0.00,21.5,20.2,00.0,30.4,23.1,07.6,0000.0,0002.61,0009.86,0001.68
2022-12-03 14:16:00,,0831.7,5.00,0.00,21.4,19.7,00.0,30.4,22.9,07.6,0000.0,0002.61,0010.81,0001.66
2022-12-03 14:17:00,,0831.7,5.00,0.00,21.3,19.4,00.0,30.4,22.8,07.7,0000.0,0002.69,0010.90,0001.64
2022-12-03 14:18:00,,0831.7,5.00,0.00,21.2,19.1,00.0,30.3,22.6,07.7,0000.0,0002.78,0010.97,0001.64
2022-12-03 14:19:00,,0831.7,5.01,0.00,21.2,19.6,00.0,30.3,22.7,07.7,0000.0,0002.75,0010.97,0001.61
2022-12-03 14:20:00,,0831.7,5.01,0.00,21.3,20.9,00.0,30.2,23.0,07.7,0000.0,0002.76,0009.97,0001.59
2022-12-03 14:21:00,,0831.7,5.00,0.00,21.4,21.4,00.0,30.2,23.2,07.7,0000.0,0002.75,0010.13,0001.57
2022-12-03 14:22:00,,0831.7,4.98,0.00,21.4,20.7,00.0,30.3,23.1,07.7,0000.0,0002.74,0009.43,0001.57
2022-12-03 14:23:00,,0831.7,5.00,0.00,21.3,20.0,00.0,30.3,22.8,07.7,0000.0,0002.79,0009.48,0001.57
2022-12-03 14:24:00,,0831.7,5.00,0.00,21.2,19.4,00.0,30.3,22.6,07.7,0000.0,0002.75,0009.66,0001.58
2022-12-03 14:25:00,,0831.8,5.01,0.00,21.1,19.1,00.0,30.2,22.5,07.6,0000.0,0002.78,0009.78,0001.57
2022-12-03 14:26:00,,0831.7,5.00,0.00,21.0,18.9,00.0,30.2,22.4,07.7,0000.0,0002.77,0010.11,0001.58
2022-12-03 14:27:00,,0831.7,5.00,0.00,21.1,20.1,00.0,30.1,22.7,07.8,0000.0,0002.75,0009.17,0001.58
2022-12-03 14:28:00,,0831.6,5.01,0.00,21.2,21.3,00.0,30.1,23.0,07.7,0000.0,0002.75,0008.86,0001.58
2022-12-03 14:29:00,,0831.7,4.99,0.00,21.3,21.6,00.0,30.1,23.2,07.7,0000.0,0002.65,0008.62,0001.57
2022-12-03 14:30:00,,0831.7,4.99,0.00,21.3,20.8,00.0,30.1,23.0,07.6,0000.0,0002.65,0007.91,0001.56
2022-12-03 14:31:00,,0831.6,5.00,0.00,21.2,20.0,00.0,30.2,22.8,07.7,0000.0,0002.65,0007.94,0001.56
2022-12-03 14:32:00,,0831.6,5.00,0.00,21.1,19.4,00.0,30.2,22.6,07.7,0000.0,0002.64,0008.58,0001.57
2022-12-03 14:33:00,,0831.5,5.00,0.00,21.0,18.9,00.0,30.2,22.4,07.8,0000.0,0002.72,0008.87,0001.56
2022-12-03 14:34:00,,0831.6,5.00,0.00,20.9,18.8,00.0,30.1,22.3,07.7,0000.0,0002.70,0008.96,0001.54
2022-12-03 14:35:00,,0831.7,5.01,0.00,21.0,20.1,00.0,30.0,22.6,07.6,0000.0,0002.69,0009.08,0001.53
2022-12-03 14:36:00,,0831.7,5.00,0.00,21.1,21.3,00.0,30.0,23.0,07.7,0000.0,0002.66,0009.05,0001.53
2022-12-03 14:37:00,,0831.5,4.99,0.00,21.2,21.6,00.0,30.0,23.1,07.7,0000.0,0002.61,0008.71,0001.54
2022-12-03 14:38:00,,0831.4,4.99,0.00,21.2,20.8,00.0,30.1,23.0,07.7,0000.0,0002.54,0008.56,0001.51
2022-12-03 14:39:00,,0831.4,5.00,0.00,21.2,20.2,00.0,30.1,22.8,07.7,0000.0,0002.52,0008.50,0001.49
2022-12-03 14:40:00,,0831.4,5.00,0.00,21.1,19.8,00.0,30.1,22.7,07.7,0000.0,0002.56,0007.85,0001.48
2022-12-03 14:41:00,,0831.4,5.00,0.00,21.1,19.4,00.0,30.1,22.6,07.7,0000.0,0002.57,0007.87,0001.49
2022-12-03 14:42:00,,0831.5,5.00,0.00,21.0,19.2,00.0,30.1,22.5,07.8,0000.0,0002.61,0007.89,0001.48
2022-12-03 14:43:00,,0831.5,5.01,0.00,21.0,19.6,00.0,30.0,22.6,08.0,0000.0,0002.55,0006.79,0001.48
2022-12-03 14:44:00,,0831.3,5.01,0.00,21.1,21.0,00.0,30.0,22.9,08.0,0000.0,0002.45,0006.07,0001.49
2022-12-03 14:45:00,,0831.3,4.99,0.00,21.3,21.5,00.0,30.0,23.1,08.0,0000.0,0002.40,0005.84,0001.50
2022-12-03 14:46:00,,0831.2,4.99,0.00,21.3,21.1,00.0,30.1,23.1,07.9,0000.0,0002.47,0005.21,0001.51
2022-12-03 14:47:00,,0831.4,4.99,0.00,21.3,20.5,00.0,30.1,22.9,08.0,0000.0,0002.51,0005.16,0001.51
2022-12-03 14:48:00,,0831.4,5.00,0.00,21.2,20.0,00.0,30.1,22.8,08.1,0000.0,0002.53,0005.20,0001.51
2022-12-03 14:49:00,,0831.2,5.00,0.00,21.1,19.5,00.0,30.1,22.7,08.1,0000.0,0002.61,0005.53,0001.52
2022-12-03 14:50:00,,0831.2,5.00,0.00,21.1,19.3,00.0,30.1,22.6,08.0,0000.0,0002.60,0005.63,0001.53
2022-12-03 14:51:00,,0831.2,5.01,0.00,21.1,19.4,00.0,30.1,22.6,08.1,0000.0,0002.60,0005.95,0001.54
2022-12-03 14:52:00,,0831.2,5.01,0.00,21.2,20.7,00.0,30.0,22.9,08.0,0000.0,0002.63,0006.41,0001.53
2022-12-03 14:53:00,,0831.2,5.00,0.00,21.3,21.9,00.0,30.0,23.2,07.9,0000.0,0002.59,0006.77,0001.53
2022-12-03 14:54:00,,0831.2,5.00,0.00,21.4,21.6,00.0,30.1,23.2,07.7,0000.0,0002.63,0007.98,0001.53
2022-12-03 14:55:00,,0831.2,4.99,0.00,21.4,21.0,00.0,30.2,23.1,07.7,0000.0,0002.68,0008.33,0001.52
2022-12-03 14:56:00,,0831.2,5.00,0.00,21.3,20.5,00.0,30.2,23.0,08.3,0000.0,0002.75,0008.70,0001.52
2022-12-03 14:57:00,,0831.2,5.00,0.00,21.3,20.2,00.0,30.2,23.0,08.6,0000.0,0002.74,0009.33,0001.53
2022-12-03 14:58:00,,0831.2,5.00,0.00,21.3,20.0,00.0,30.2,23.0,08.6,0000.0,0002.73,0009.33,0001.53
2022-12-03 14:59:00,,0831.2,5.00,0.00,21.3,19.8,00.0,30.2,22.9,08.7,0000.0,0002.74,0009.49,0001.54
